TimeMDT,TemperatureF,Dew PointF,Humidity,Sea Level PressureIn,VisibilityMPH,Wind Direction,Wind SpeedMPH,Gust SpeedMPH,PrecipitationIn,Events,Conditions,WindDirDegrees,DateUTC
12:36 AM,26.6,24.8,93,30.21,10.0,Calm,Calm,-,N/A,,Mostly Cloudy,0,2012-10-27 06:36:00
12:53 AM,28.0,26.1,92,30.25,9.0,Calm,Calm,-,N/A,,Overcast,0,2012-10-27 06:53:00
1:53 AM,28.9,25.0,85,30.21,10.0,Calm,Calm,-,N/A,,Overcast,0,2012-10-27 07:53:00
2:53 AM,28.0,25.0,88,30.19,10.0,NNW,3.5,-,N/A,,Overcast,340,2012-10-27 08:53:00
3:53 AM,28.0,25.0,88,30.19,10.0,North,4.6,-,N/A,,Overcast,360,2012-10-27 09:53:00
4:53 AM,28.9,25.0,85,30.18,10.0,Calm,Calm,-,N/A,,Overcast,0,2012-10-27 10:53:00
5:53 AM,28.9,25.0,85,30.20,10.0,Calm,Calm,-,N/A,,Overcast,0,2012-10-27 11:53:00
6:53 AM,28.9,25.0,85,30.20,10.0,Calm,Calm,-,N/A,,Overcast,0,2012-10-27 12:53:00
7:53 AM,28.0,25.0,88,30.22,6.0,West,5.8,-,N/A,,Overcast,270,2012-10-27 13:53:00
8:53 AM,30.0,26.1,85,30.23,5.0,West,3.5,-,N/A,,Overcast,260,2012-10-27 14:53:00
9:53 AM,30.9,26.1,82,30.23,6.0,WNW,6.9,-,N/A,,Haze,290,2012-10-27 15:53:00
10:42 AM,33.8,28.4,81,30.15,7.0,West,4.6,-,N/A,,Partly Cloudy,270,2012-10-27 16:42:00
10:53 AM,34.0,28.0,79,30.20,7.0,WSW,6.9,-,N/A,,Partly Cloudy,250,2012-10-27 16:53:00
11:53 AM,37.9,28.9,70,30.17,8.0,South,3.5,-,N/A,,Clear,180,2012-10-27 17:53:00
12:53 PM,44.1,28.9,55,30.14,9.0,Calm,Calm,-,N/A,,Clear,0,2012-10-27 18:53:00
1:53 PM,46.9,23.0,39,30.10,10.0,SE,9.2,-,N/A,,Clear,140,2012-10-27 19:53:00
2:53 PM,50.0,23.0,35,30.08,10.0,East,9.2,17.3,N/A,,Clear,100,2012-10-27 20:53:00
3:53 PM,51.1,19.9,29,30.09,10.0,SE,11.5,-,N/A,,Clear,130,2012-10-27 21:53:00
4:53 PM,48.9,18.0,29,30.10,10.0,ESE,12.7,-,N/A,,Clear,120,2012-10-27 22:53:00
5:53 PM,46.9,19.9,34,30.12,10.0,ESE,10.4,-,N/A,,Clear,120,2012-10-27 23:53:00
6:53 PM,39.9,23.0,51,30.17,10.0,East,5.8,-,N/A,,Clear,90,2012-10-28 00:53:00
7:53 PM,37.0,23.0,57,30.20,10.0,ENE,5.8,-,N/A,,Clear,70,2012-10-28 01:53:00
8:53 PM,30.9,23.0,72,30.23,10.0,Calm,Calm,-,N/A,,Clear,0,2012-10-28 02:53:00
9:53 PM,30.2,23.0,75,30.18,10.0,North,3.5,-,N/A,,Clear,350,2012-10-28 03:53:00
10:53 PM,34.0,24.1,67,30.23,10.0,North,3.5,-,N/A,,Clear,350,2012-10-28 04:53:00
11:53 PM,30.0,24.1,79,30.23,10.0,South,3.5,-,N/A,,Clear,190,2012-10-28 05:53:00